This is the latest recevied weather packets stored in our database for station/object SQ6RR-12. If no packets are shown the sender has not sent any weather packets the latest 10 day(s).
| Time | Temp. | Humidity | Pressure | Rain* | Wind** | Luminosity | Snow |
|---|---|---|---|---|---|---|---|
| 1777796012 | 22.22° C | 31% | 1019.3 hPa | 0 mm | - | - | - |
| 1777795762 | 22.22° C | 31% | 1019.2 hPa | 0 mm | - | - | - |
| 1777795507 | 22.22° C | 32% | 1019.2 hPa | 0 mm | - | - | - |
| 1777795244 | 22.22° C | 32% | 1019.3 hPa | 0 mm | - | - | - |
| 1777794987 | 21.67° C | 32% | 1019.2 hPa | 0 mm | - | - | - |
| 1777794726 | 21.67° C | 34% | 1019.2 hPa | 0 mm | - | - | - |
| 1777794462 | 22.22° C | 32% | 1019.2 hPa | 0 mm | - | - | - |
| 1777794177 | 22.22° C | 33% | 1019.2 hPa | 0 mm | - | - | - |
| 1777793901 | 22.22° C | 35% | 1019.2 hPa | 0 mm | - | - | - |
| 1777793612 | 21.11° C | 35% | 1019.2 hPa | 0 mm | - | - | - |
| 1777793337 | 21.67° C | 34% | 1019.3 hPa | 0 mm | - | - | - |
| 1777793072 | 21.67° C | 35% | 1019.3 hPa | 0 mm | - | - | - |
| 1777792807 | 21.67° C | 34% | 1019.4 hPa | 0 mm | - | - | - |
| 1777792542 | 21.11° C | 37% | 1019.4 hPa | 0 mm | - | - | - |
| 1777792262 | 21.67° C | 36% | 1019.4 hPa | 0 mm | - | - | - |
| 1777791997 | 21.67° C | 34% | 1019.4 hPa | 0 mm | - | - | - |
| 1777791730 | 21.67° C | 36% | 1019.4 hPa | 0 mm | - | - | - |
| 1777791452 | 21.67° C | 37% | 1019.5 hPa | 0 mm | - | - | - |
| 1777791170 | 21.11° C | 39% | 1019.5 hPa | 0 mm | - | - | - |
| 1777790901 | 21.11° C | 38% | 1019.5 hPa | 0 mm | - | - | - |
| 1777790642 | 21.11° C | 36% | 1019.5 hPa | 0 mm | - | - | - |
| 1777790371 | 20.56° C | 39% | 1019.5 hPa | 0 mm | - | - | - |
| 1777790104 | 20° C | 42% | 1019.5 hPa | 0 mm | - | - | - |
| 1777789842 | 20° C | 38% | 1019.4 hPa | 0 mm | - | - | - |
| 1777789572 | 20° C | 40% | 1019.4 hPa | 0 mm | - | - | - |
* Rain latest hour (hover to see other rain measurements)
** Current wind speed in m/s (hover to see current wind gust speed)